Powrót do katalogu

KORSAT-3

AktywnyNaukaVLEO
NORAD 63630·PAYLOAD·🇰🇷 South Korea

Wystrzelony Apr 22, 2025 z Cape Canaveral Space Force Station

Loading…

Następne Przeloty (najbliższe 24 godziny)

TLE

ŚwieżeSource: Space-Track

Epoka: Sep 14, 2026, 12:04 UTC

1 63630U 25081A   26257.50345736  .00001720  00000-0  15707-3 0  9992
2 63630  45.4118 232.6225 0013943 339.2739  20.7572 14.99343566 76580

Śledź KORSAT-3 w czasie rzeczywistym z AllMySat

Download on the App Store